Temperature
18 18 18 18 18 18 18 18 18 18 18 18 18 18 18 18 18 18 18 18 18 18 18 18 18 18 18 18 18 17 17 17 17 17 17 17 17 17 16 16 16 16 16
18 18 18 18 18 18 18 18 18 18 18 18 18 18 18 17 18 18 18 18 18 18 18 18 18 18 18 18 18 18 17 17 17 17 17 17 17 17 17 16 16 16 16
18 18 18 18 18 18 18 18 18 18 18 18 18 18 18 18 18 18 18 18 18 18 18 18 18 18 18 18 18 18 17 17 17 17 17 17 17 17 17 17 16 16 16
18 18 18 18 18 18 18 18 18 17 18 18 18 18 18 18 18 18 18 18 18 18 18 18 18 18 18 18 18 18 17 17 17 17 17 17 17 17 17 17 17 16 16
18 18 18 18 18 18 18 18 17 18 18 18 18 18 18 18 18 18 18 18 18 18 18 18 18 18 18 18 18 18 18 17 17 17 17 17 17 17 17 17 17 17 16
18 18 18 18 18 18 18 18 18 18 18 18 18 18 18 18 18 18 18 18 18 18 18 18 18 18 18 18 18 18 18 17 17 17 17 17 17 17 17 17 17 17 16
18 18 18 18 18 18 18 18 18 18 18 18 18 18 18 18 18 18 18 18 18 18 18 18 18 18 18 18 18 18 18 17 17 17 17 17 17 17 17 17 17 16 16
19 19 18 18 18 18 18 18 18 18 18 18 17 17 18 18 18 19 18 18 18 18 18 18 18 18 18 18 18 18 18 18 17 17 17 17 17 17 17 17 16 16 16
19 19 19 19 18 18 18 18 18 18 18 18 17 17 17 18 18 19 19 18 18 18 18 18 18 18 18 18 18 18 18 17 17 17 17 17 17 17 17 16 16 16 16
19 19 19 19 19 18 18 18 18 18 18 18 18 17 17 17 17 18 18 18 18 18 18 18 18 18 18 18 18 18 18 17 17 17 17 17 17 17 16 16 16 16 16
19 19 19 19 19 19 18 18 18 18 18 18 18 17 17 17 17 17 17 18 18 18 18 18 18 18 17 17 17 17 17 17 17 17 17 17 17 16 16 16 16 16 16
19 19 19 19 19 19 19 18 18 18 18 18 18 17 17 17 17 17 17 17 17 18 18 18 17 17 17 17 17 17 17 17 17 17 17 17 16 16 16 16 16 16 16
19 19 19 19 19 19 19 18 18 18 18 18 18 18 17 17 17 17 17 17 17 17 17 17 17 17 17 17 17 17 17 17 16 16 16 16 16 16 16 16 16 16 16
20 19 19 19 19 19 19 18 18 18 18 18 18 18 18 17 17 17 17 17 17 17 17 17 17 17 17 16 16 16 16 16 16 16 16 16 16 16 16 16 16 15 15
20 20 19 19 19 19 18 18 18 18 18 18 18 18 18 17 17 17 17 17 17 16 16 16 16 16 16 16 16 16 16 16 16 16 16 16 16 16 15 15 15 15 15
20 19 19 19 19 19 19 18 18 18 18 18 18 18 18 18 17 17 17 17 17 16 16 16 16 16 16 16 16 16 15 15 15 15 15 15 15 15 15 15 15 15 15
20 19 19 19 19 19 19 18 18 18 18 18 18 18 18 17 17 17 17 17 17 16 16 16 16 16 16 16 16 15 15 15 15 15 15 15 15 15 15 15 15 15 15
19 19 19 19 19 19 19 18 18 18 18 18 18 18 18 17 17 17 17 17 17 16 16 16 16 15 15 15 15 15 15 15 15 15 15 15 15 14 14 14 14 14 14
19 19 19 19 19 19 18 18 18 18 18 18 18 18 17 17 17 17 17 17 16 16 16 16 15 15 15 15 15 15 14 14 14 14 14 14 14 14 14 14 14 14 14
19 19 19 18 18 18 18 18 18 18 18 18 18 17 17 17 17 17 17 17 16 16 16 15 15 15 15 14 14 14 14 14 14 14 14 14 14 14 14 14 14 13 13
19 19 19 18 18 18 18 18 18 18 18 18 18 18 17 17 17 17 17 16 16 16 15 15 15 15 14 14 14 14 14 14 14 14 13 13 13 13 13 13 13 13 13
19 19 18 18 18 18 18 18 18 18 18 18 17 17 17 17 17 17 16 16 16 16 15 15 15 14 14 14 14 14 13 13 13 13 13 13 13 13 13 13 12 12 12
19 18 18 18 18 18 18 18 18 17 17 17 17 17 17 17 16 16 16 16 16 15 15 15 14 14 14 14 14 13 13 13 13 13 13 13 13 12 12 12 12 12 12
18 18 18 18 18 17 17 17 17 17 17 17 17 17 16 16 16 16 16 15 15 15 15 14 14 14 14 13 13 13 13 13 13 12 12 12 12 12 12 12 12 11 11
18 18 17 17 17 17 17 17 17 17 16 16 16 16 16 16 16 15 15 15 15 15 14 14 14 14 13 13 13 13 13 13 12 12 12 12 12 12 12 11 11 11 11
17 17 17 17 17 17 17 16 16 16 16 16 16 16 15 15 15 15 15 15 14 14 14 14 14 13 13 13 13 13 12 12 12 12 12 11 11 11 11 11 11 11 10
Wind_Speed
4 3 4 5 5 6 5 5 5 5 4 5 6 5 5 7 8 10 11 16 18 18 17 16 16 16 16 15 15 15 15 15 14 14 13 13 12 12 11 11 11 11 10
5 4 3 3 4 6 6 6 5 4 3 3 4 4 5 7 8 9 11 14 18 18 18 17 17 17 16 16 16 16 16 16 16 16 15 14 14 13 13 12 12 12 11
7 5 4 3 4 6 5 4 3 3 3 3 4 4 4 6 7 9 10 12 14 17 18 18 17 17 17 17 17 18 18 18 17 17 16 16 16 15 14 14 14 13 13
9 6 4 3 5 4 3 2 2 2 3 3 3 4 4 4 6 8 9 11 12 12 15 18 18 18 18 18 18 18 18 19 19 18 18 18 17 17 16 16 16 15 15
10 6 4 4 5 3 2 3 2 3 3 3 4 4 4 4 4 6 7 10 12 13 13 15 19 20 20 20 20 20 19 19 20 19 19 19 19 18 18 18 17 17 16
10 7 5 5 4 3 3 2 2 2 3 3 4 4 4 4 4 5 6 7 10 12 13 14 15 17 21 21 21 21 21 21 20 20 20 20 20 20 19 19 19 18 18
10 7 4 4 4 4 4 4 3 2 2 1 0 3 4 3 4 5 5 5 6 9 10 12 12 13 14 19 21 21 21 21 21 21 21 21 22 21 21 21 21 20 20
10 8 6 5 5 4 4 4 3 2 2 1 2 0 3 4 3 3 3 4 4 4 5 8 9 12 12 12 14 20 21 22 22 21 21 22 22 23 22 22 21 21 21
9 7 6 5 5 5 4 4 4 4 3 2 2 3 2 3 3 3 2 2 2 2 3 4 7 9 11 10 11 14 18 20 20 21 20 21 21 21 21 21 22 22 22
7 7 7 6 6 5 5 5 4 4 4 3 2 2 3 3 1 3 3 2 2 3 3 4 4 5 8 8 8 10 12 13 15 16 17 17 17 18 19 20 20 20 21
5 6 6 6 6 5 5 5 4 4 4 4 3 2 1 1 2 2 3 4 3 3 3 3 2 3 4 5 5 7 8 9 11 13 14 16 16 16 16 16 17 18 18
4 5 5 5 6 5 5 5 5 5 4 4 3 3 3 2 3 3 3 3 3 3 3 1 1 2 3 3 4 5 5 5 7 9 11 13 13 13 13 13 13 13 13
4 5 5 5 5 5 5 5 4 4 4 4 4 3 3 4 3 3 3 3 2 3 2 1 1 1 2 3 2 3 3 4 5 6 6 8 9 9 10 10 10 10 11
5 5 5 5 6 6 6 5 4 4 4 4 4 3 3 3 3 3 3 2 1 2 1 1 1 1 1 2 2 2 2 4 4 5 5 6 6 6 7 7 7 7 8
5 5 5 6 6 5 5 5 4 5 4 4 3 3 3 2 2 2 3 3 3 2 2 1 1 1 0 1 1 1 2 2 2 2 3 3 3 4 5 5 5 6 6
5 5 6 6 6 6 5 5 4 4 5 4 3 3 3 2 1 1 2 2 3 4 2 2 2 2 1 1 1 1 1 1 2 1 1 1 2 3 3 4 4 4 4
6 6 6 6 6 6 5 5 5 5 5 4 3 3 3 2 1 1 1 1 2 3 2 2 1 1 0 0 1 1 1 1 1 1 1 1 1 1 1 1 2 2 3
6 6 6 6 6 6 6 6 6 6 6 5 5 4 3 2 2 1 1 1 1 2 3 2 1 1 1 1 1 1 0 0 0 1 1 2 2 2 1 1 1 0 1
5 4 5 6 6 6 6 6 6 6 6 6 5 5 4 3 2 2 1 1 1 1 2 2 1 1 1 1 0 1 0 0 1 1 1 1 2 1 1 1 0 1 1
5 5 5 5 5 5 6 6 6 6 5 5 5 5 4 4 4 3 2 2 1 1 1 2 1 0 1 1 0 0 0 1 1 1 1 0 0 0 0 0 1 1 1
5 5 5 5 5 5 5 5 5 6 6 5 4 4 4 5 5 4 2 2 2 2 1 1 1 0 1 0 1 1 1 1 1 0 0 1 0 0 1 1 1 1 1
5 5 5 5 6 5 6 8 7 5 6 6 5 4 3 3 3 3 3 4 4 4 3 2 2 2 3 2 2 1 1 1 1 1 1 1 0 1 2 2 2 1 1
5 5 5 5 5 5 7 8 9 6 6 6 5 4 3 3 3 2 2 2 2 2 4 4 4 4 3 4 2 2 2 2 3 2 1 1 1 1 2 2 3 3 2
5 5 5 5 4 4 6 7 8 6 5 5 6 6 5 4 4 4 3 2 1 1 2 3 4 4 3 3 4 4 4 2 1 1 2 1 1 2 1 1 2 3 3
5 5 4 5 5 5 6 7 7 5 5 5 5 5 6 5 5 6 4 3 1 1 0 2 3 2 3 2 3 2 2 2 0 2 1 1 1 1 1 1 2 3 3
5 4 4 5 5 5 6 7 8 5 5 4 4 4 6 6 7 8 5 5 4 3 1 1 0 1 1 1 2 3 3 2 1 1 1 2 1 1 1 1 1 2 2
Wind_Direction
172 173 184 195 202 202 201 207 217 221 225 237 239 229 219 216 214 203 203 205 204 204 204 203 204 206 207 208 209 209 209 209 208 208 210 212 212 212 211 211 211 209 207
177 171 180 192 204 204 202 202 212 219 226 226 244 235 223 222 218 207 207 208 208 209 210 209 209 210 213 214 215 215 215 215 214 214 215 217 217 217 217 216 215 214 215
182 177 177 194 208 206 201 201 218 223 230 235 249 251 236 224 214 211 207 208 213 216 216 216 215 216 219 220 220 220 220 219 218 218 218 217 218 219 219 219 219 220 221
185 173 175 198 207 204 195 197 204 217 240 244 253 261 250 233 221 215 208 210 211 217 221 222 222 222 223 224 225 225 225 223 222 222 221 219 220 221 222 223 223 224 225
191 180 184 199 199 195 205 214 203 202 230 249 252 254 254 249 239 223 211 212 211 215 220 228 229 228 228 229 229 229 228 227 226 224 224 224 224 224 225 226 226 228 229
199 187 190 199 190 188 209 213 215 216 225 240 264 278 268 251 239 230 226 220 215 217 222 228 231 234 233 233 232 232 232 230 228 227 227 227 227 226 225 226 227 230 231
199 190 195 191 189 196 213 212 203 217 238 221 327 316 307 281 253 240 234 231 226 222 220 223 227 230 235 236 235 234 235 234 232 231 230 229 229 228 227 227 228 230 231
197 197 190 193 192 195 215 215 200 199 242 184 158 21 325 331 317 269 247 233 240 232 229 229 227 230 231 231 233 236 238 238 237 235 234 233 231 231 230 229 230 231 232
199 201 196 193 195 190 205 211 199 193 222 238 186 164 179 256 299 312 296 255 237 234 242 237 231 232 228 228 232 239 240 242 242 241 239 237 234 231 231 230 232 233 233
201 205 201 194 193 192 200 211 199 193 188 221 242 216 197 185 212 308 320 316 273 244 249 255 243 230 230 222 224 232 237 239 243 244 243 242 240 236 234 234 235 237 236
205 206 201 196 197 199 201 203 193 192 189 195 201 210 225 219 201 208 281 307 313 272 253 245 237 226 207 201 217 229 235 240 243 246 246 243 241 239 238 237 238 241 241
217 215 202 198 199 198 198 197 193 194 200 197 194 192 192 201 214 203 236 270 284 285 283 258 222 211 174 179 218 229 229 239 247 246 246 246 245 244 244 242 243 246 247
214 223 214 205 205 203 198 192 192 199 198 199 204 209 208 213 205 190 201 242 266 285 315 345 300 164 142 148 196 217 224 237 242 244 248 249 249 250 250 249 247 249 251
215 216 212 210 208 201 199 193 200 209 203 207 215 210 214 224 207 192 191 192 256 297 311 294 333 1 108 144 174 208 238 251 252 250 248 247 245 245 245 246 250 253 257
216 213 209 206 208 203 198 190 202 208 202 209 217 217 218 225 208 204 191 180 178 228 273 274 302 318 62 134 151 167 217 265 267 260 245 233 231 238 239 237 240 247 254
221 208 205 203 203 200 198 191 198 205 199 209 205 199 208 222 217 203 195 192 177 180 217 240 234 242 224 144 222 207 231 274 290 303 233 211 214 225 229 233 236 246 254
217 212 208 202 200 200 197 192 199 189 187 199 201 192 205 198 198 203 183 177 180 167 199 257 252 254 194 246 326 244 227 222 250 249 210 176 162 169 188 217 231 243 251
218 210 203 200 203 202 198 195 203 195 188 190 194 188 202 196 192 201 188 194 197 180 177 227 269 251 230 234 231 222 187 149 199 273 183 140 129 129 130 123 132 208 259
214 208 202 204 205 202 201 202 199 194 191 192 193 194 203 188 199 209 201 203 219 193 167 182 242 262 270 314 336 342 88 42 35 29 98 147 162 162 148 137 86 347 324
202 200 206 207 205 203 202 202 196 191 189 191 191 192 196 190 194 196 201 211 205 167 152 161 193 265 285 295 141 296 327 311 307 34 62 55 225 232 283 46 29 15 351
208 204 201 204 206 204 209 199 194 191 183 185 187 191 195 189 185 186 191 187 171 167 161 168 192 217 263 280 247 236 221 292 296 301 358 326 322 332 304 308 319 340 11
211 198 202 206 211 220 218 201 192 191 184 183 190 194 194 181 176 174 177 174 167 171 180 179 200 207 231 229 226 206 185 143 277 269 171 272 185 270 264 250 262 259 256
210 209 212 208 212 224 217 204 197 186 186 187 186 185 192 183 165 175 185 179 197 187 181 179 195 218 216 218 204 208 203 198 221 232 162 249 261 261 261 264 245 225 218
216 217 216 213 211 224 210 199 195 189 186 186 187 187 181 184 191 181 173 175 215 240 204 187 193 211 215 215 203 202 205 207 285 274 140 196 259 259 279 267 246 215 208
216 214 208 211 212 226 210 198 187 187 190 193 191 188 185 190 196 175 163 176 202 285 239 164 185 202 217 218 178 130 125 124 259 273 198 158 219 269 301 280 266 236 225
209 204 213 215 213 223 212 194 184 189 192 194 191 191 190 192 187 177 177 177 191 220 193 151 54 355 325 306 167 164 170 160 172 245 236 158 175 126 290 283 263 260 241
Height
1548 1548 1549 1549 1550 1551 1552 1553 1553 1554 1555 1555 1556 1557 1557 1558 1558 1558 1558 1559 1559 1559 1560 1560 1560 1560 1561 1562 1562 1563 1563 1564 1564 1565 1566 1566 1567 1568 1568 1569 1569 1570 1571
1548 1548 1549 1549 1550 1550 1551 1552 1553 1553 1554 1555 1555 1556 1556 1556 1557 1557 1557 1557 1558 1558 1558 1559 1559 1559 1560 1560 1561 1561 1562 1562 1563 1563 1564 1565 1565 1566 1566 1567 1568 1568 1569
1548 1548 1548 1549 1549 1550 1551 1552 1552 1553 1553 1554 1554 1554 1555 1555 1555 1555 1556 1556 1556 1557 1557 1557 1557 1558 1558 1558 1559 1559 1560 1560 1560 1561 1562 1562 1563 1564 1564 1565 1565 1566 1567
1547 1548 1548 1549 1549 1550 1550 1551 1551 1552 1552 1552 1553 1553 1553 1553 1554 1554 1554 1554 1554 1555 1555 1555 1556 1556 1556 1556 1556 1557 1557 1558 1558 1559 1559 1560 1560 1561 1562 1562 1563 1563 1564
1546 1547 1547 1548 1548 1549 1549 1550 1550 1551 1551 1551 1551 1551 1551 1551 1552 1552 1552 1552 1552 1552 1553 1553 1554 1554 1554 1554 1554 1554 1554 1555 1555 1556 1556 1557 1557 1558 1559 1559 1560 1560 1561
1545 1546 1547 1547 1547 1548 1548 1549 1549 1549 1549 1549 1549 1549 1549 1549 1549 1549 1549 1549 1550 1550 1550 1550 1551 1551 1551 1551 1551 1551 1551 1552 1552 1553 1553 1554 1554 1555 1555 1556 1557 1557 1558
1544 1544 1545 1546 1546 1547 1547 1547 1547 1548 1548 1548 1548 1547 1547 1547 1546 1546 1547 1547 1547 1547 1547 1547 1548 1548 1548 1548 1548 1548 1548 1549 1549 1549 1550 1550 1550 1551 1552 1552 1553 1553 1554
1542 1543 1543 1544 1545 1545 1545 1546 1546 1546 1546 1546 1546 1545 1545 1545 1544 1544 1544 1544 1544 1544 1545 1545 1544 1544 1545 1545 1545 1545 1545 1545 1545 1546 1546 1546 1547 1547 1548 1548 1549 1549 1550
1540 1541 1542 1542 1543 1543 1544 1544 1544 1544 1544 1545 1545 1545 1544 1543 1543 1542 1542 1542 1542 1542 1542 1541 1541 1541 1541 1541 1542 1542 1542 1542 1542 1542 1542 1542 1542 1543 1543 1544 1544 1545 1545
1538 1539 1540 1540 1541 1541 1542 1542 1542 1542 1543 1542 1543 1543 1543 1543 1542 1540 1540 1540 1539 1539 1539 1539 1538 1538 1538 1538 1538 1538 1538 1538 1537 1537 1537 1538 1538 1538 1538 1539 1539 1540 1540
1536 1537 1538 1538 1539 1539 1540 1540 1540 1540 1540 1540 1540 1540 1540 1540 1540 1540 1538 1537 1537 1536 1536 1536 1536 1536 1535 1535 1535 1535 1534 1534 1533 1533 1533 1533 1533 1534 1534 1534 1534 1535 1535
1534 1535 1535 1536 1536 1537 1537 1537 1538 1538 1538 1538 1538 1538 1538 1538 1537 1537 1536 1535 1534 1534 1534 1533 1533 1533 1532 1532 1532 1531 1531 1529 1529 1529 1529 1529 1529 1529 1529 1529 1529 1530 1530
1532 1533 1533 1533 1534 1534 1535 1535 1535 1535 1535 1535 1535 1535 1535 1535 1535 1535 1534 1533 1532 1532 1531 1531 1530 1530 1530 1529 1529 1528 1527 1527 1526 1525 1525 1524 1524 1524 1524 1524 1524 1525 1525
1530 1530 1531 1531 1531 1532 1532 1532 1532 1532 1533 1533 1533 1533 1533 1533 1532 1532 1532 1531 1530 1529 1529 1529 1528 1528 1527 1526 1526 1525 1524 1523 1522 1521 1521 1520 1520 1520 1520 1519 1519 1520 1520
1527 1528 1528 1528 1529 1529 1530 1530 1530 1530 1530 1530 1530 1530 1530 1530 1530 1529 1529 1529 1529 1527 1526 1526 1526 1525 1525 1524 1523 1522 1522 1520 1519 1518 1517 1517 1516 1516 1516 1515 1515 1515 1515
1524 1524 1525 1525 1526 1526 1527 1527 1527 1527 1528 1528 1528 1527 1527 1527 1527 1527 1526 1526 1526 1525 1524 1523 1523 1523 1523 1522 1521 1520 1519 1518 1517 1516 1515 1514 1513 1512 1512 1511 1511 1511 1510
1521 1521 1522 1522 1523 1523 1524 1524 1524 1524 1524 1525 1525 1525 1524 1524 1524 1524 1523 1523 1523 1522 1521 1521 1521 1521 1520 1519 1519 1518 1517 1516 1515 1514 1513 1512 1511 1510 1509 1509 1508 1507 1507
1517 1518 1519 1519 1520 1520 1520 1520 1521 1521 1521 1521 1522 1522 1521 1521 1521 1521 1520 1520 1520 1519 1519 1518 1518 1518 1517 1517 1516 1515 1515 1514 1513 1512 1511 1510 1509 1508 1507 1506 1505 1505 1504
1514 1514 1514 1515 1516 1516 1517 1517 1517 1518 1518 1518 1519 1519 1519 1518 1518 1518 1517 1517 1517 1516 1516 1516 1515 1515 1515 1514 1514 1513 1512 1511 1511 1510 1509 1508 1507 1506 1505 1504 1503 1502 1502
1509 1509 1511 1511 1512 1513 1513 1514 1514 1514 1515 1515 1515 1515 1516 1515 1515 1515 1515 1514 1514 1514 1513 1513 1513 1512 1512 1512 1511 1511 1509 1509 1509 1508 1507 1507 1506 1505 1504 1502 1501 1500 1500
1505 1506 1507 1507 1508 1508 1509 1509 1510 1511 1511 1511 1512 1512 1512 1512 1511 1512 1512 1511 1511 1511 1510 1510 1510 1510 1509 1509 1508 1508 1508 1507 1507 1506 1505 1505 1504 1503 1502 1501 1500 1499 1498
1501 1502 1503 1503 1504 1504 1504 1505 1506 1506 1507 1507 1508 1508 1508 1508 1508 1508 1509 1509 1509 1508 1508 1507 1507 1507 1506 1506 1506 1505 1505 1505 1504 1505 1504 1503 1502 1501 1500 1499 1499 1498 1497
1497 1498 1498 1499 1499 1500 1501 1501 1502 1502 1503 1503 1504 1504 1504 1504 1505 1505 1505 1505 1505 1505 1505 1505 1505 1504 1504 1503 1503 1503 1503 1502 1502 1502 1502 1500 1500 1499 1499 1498 1497 1496 1496
1492 1493 1494 1494 1495 1495 1496 1497 1498 1499 1499 1499 1500 1500 1501 1501 1501 1501 1501 1501 1501 1501 1502 1502 1502 1501 1501 1501 1500 1500 1500 1500 1500 1500 1499 1499 1498 1498 1497 1497 1496 1495 1494
1487 1488 1489 1490 1491 1491 1492 1493 1494 1494 1494 1495 1495 1496 1497 1497 1498 1498 1498 1498 1498 1498 1499 1499 1499 1498 1498 1498 1498 1497 1497 1497 1496 1497 1497 1497 1496 1495 1495 1495 1494 1494 1493
1482 1483 1484 1485 1486 1487 1487 1488 1489 1490 1490 1490 1491 1491 1492 1493 1493 1494 1494 1494 1494 1495 1495 1496 1496 1495 1495 1495 1495 1495 1495 1494 1494 1494 1494 1494 1494 1493 1493 1493 1492 1492 1491